Find Starlink 37189

NORAD ID: 68603 Int'l Des: 2026-073 Owner: SPXS Country: US Constellation: starlink operational
LEOCIRCULARRETROGRADE

現在のビュー

3D地球を読み込み中...

About Starlink 37189

Starlink 37189 (NORAD 68603) is a starlink constellation satellite (v2 mini) launched Apr 7, 2026 by SPXS of US. It operates in LEO, CIRCULAR, RETROGRADE orbit with a mass of 575.00 kg.

次回通過

Passes for default location (London). Set your location on the main map for personalized predictions.

高度履歴

Loading altitude history...

軌道要素

1 68603U 26073B 26238.09150288 .00022100 00000-0 68463-3 0 9990
2 68603 97.2822 76.4173 0001546 94.1143 266.0276 15.33455678 21842
Epoch: Aug 26, 2026 • Age: 8 hours

現在のステータス

高度 488.2 km
遠地点 / 近地点 N/A
速度 7.62 km/s
衛星直下点 -56.12°S, 33.72°W
打ち上げ日 Apr 7, 2026
運用期間 0.3 years
タイプ internet

技術仕様

分類 Payload
質量 575.00 kg
乾燥質量 530.00 kg
総質量 575.00 kg
長さ 0.30 m
直径 4.10 m
スパン 29.00 m
形状 Box + pan
製造者 SPXS
バスタイプ Starlink V2MO
フェーズステータス In Orbit
所有者/国 SPXS/US

Most Searched